GW6301 Weather Reports


Display with metric or nautical units.
time (UTC)temp
F
wind
direction
speed
MPH
gust
MPH
rain 1hr
in
rain 24hr
in
rain mn
in
humidity
%
barometer
mb
20260506062251 48 38 0.0 2.0 0.00 0.00 0.00 96 1007.8
20260506061752 48 304 0.0 0.0 0.00 0.00 0.00 96 1007.5
20260506061252 48 60 0.0 1.0 0.00 0.00 0.00 96 1007.8
20260506060751 48 51 0.0 0.0 0.00 0.00 0.00 96 1007.8
20260506060251 48 3 0.0 2.0 0.00 0.00 0.00 96 1007.8
20260506051252 49 69 0.0 1.0 0.00 0.00 0.00 94 1008.5
20260506050752 49 310 0.0 2.0 0.00 0.00 0.00 94 1008.5
20260506050251 50 80 0.0 0.0 0.00 0.00 0.00 94 1008.5
20260506044752 50 333 0.0 1.0 0.00 0.00 0.00 93 1008.5
20260506044252 50 12 0.0 0.0 0.00 0.00 0.00 92 1008.5
20260506043751 50 63 0.0 2.0 0.00 0.00 0.00 92 1008.5
20260506043252 50 319 0.0 3.0 0.00 0.00 0.00 91 1008.5
20260506042752 51 84 0.0 2.0 0.00 0.00 0.00 91 1008.5
20260506042251 51 2 1.0 3.0 0.00 0.00 0.00 91 1008.5
20260506041751 51 6 1.0 3.0 0.00 0.00 0.00 90 1008.5
20260506041251 51 16 0.0 3.0 0.00 0.00 0.00 90 1008.5
20260506040752 52 32 0.0 2.0 0.00 0.00 0.00 90 1008.5
20260506040251 52 54 0.0 2.0 0.00 0.00 0.21 89 1008.5
20260506035751 52 43 1.0 4.0 0.00 0.00 0.21 90 1008.8
20260506035251 52 49 1.0 3.0 0.00 0.00 0.21 90 1008.5
20260506034752 52 217 1.0 3.0 0.00 0.00 0.21 89 1008.8
20260506034251 52 93 1.0 3.0 0.00 0.00 0.21 89 1008.8
20260506033752 52 8 0.0 1.0 0.00 0.00 0.21 89 1008.8
20260506033251 52 316 1.0 4.0 0.00 0.00 0.21 89 1008.8
20260506032752 52 27 2.0 5.0 0.00 0.00 0.21 88 1008.8
20260506032251 52 33 1.0 4.0 0.00 0.00 0.21 88 1009.1
20260506031751 52 19 2.0 4.0 0.00 0.00 0.21 87 1008.8
20260506031251 52 20 2.0 4.0 0.00 0.00 0.21 87 1008.8
20260506030751 52 5 2.0 6.0 0.00 0.00 0.21 87 1008.8
20260506030252 52 34 2.0 5.0 0.00 0.00 0.21 87 1008.8
20260506025751 53 54 2.0 4.0 0.00 0.00 0.21 87 1009.1
20260506025256 53 65 2.0 7.0 0.00 0.00 0.21 87 1009.1
20260506024752 53 106 1.0 5.0 0.00 0.00 0.21 87 1009.1
20260506024251 53 63 1.0 5.0 0.00 0.00 0.21 88 1009.1
20260506023751 53 55 2.0 4.0 0.00 0.00 0.21 87 1009.1
20260506023252 53 45 1.0 3.0 0.00 0.00 0.21 88 1009.5
20260506022753 53 95 1.0 5.0 0.00 0.00 0.21 87 1009.5
20260506022251 53 58 1.0 4.0 0.00 0.00 0.21 87 1009.1
20260506021751 53 55 1.0 3.0 0.00 0.00 0.21 88 1009.1
20260506021252 53 34 1.0 4.0 0.00 0.00 0.21 87 1009.1
20260506020752 53 66 0.0 3.0 0.00 0.00 0.21 87 1009.1
20260506020252 53 34 1.0 5.0 0.00 0.00 0.21 87 1008.8
20260506015752 53 2 2.0 4.0 0.00 0.00 0.21 86 1008.8
20260506015251 53 17 3.0 6.0 0.00 0.00 0.21 86 1008.8
20260506014751 53 98 3.0 7.0 0.00 0.00 0.21 86 1008.5
20260506014252 54 22 3.0 6.0 0.00 0.00 0.21 86 1008.1
20260506013752 54 307 3.0 8.0 0.00 0.00 0.21 86 1008.1
20260506013251 54 78 2.0 6.0 0.00 0.00 0.21 86 1008.1
20260506012752 54 20 3.0 5.0 0.00 0.00 0.21 86 1008.1
20260506012252 54 26 2.0 6.0 0.00 0.00 0.21 86 1007.8
20260506011751 54 354 3.0 7.0 0.00 0.00 0.21 86 1007.8
20260506011251 54 41 5.0 15.0 0.00 0.00 0.21 85 1007.8
20260506010754 55 55 4.0 11.0 0.00 0.00 0.21 85 1007.8
20260506010252 55 322 3.0 8.0 0.00 0.00 0.21 86 1007.8
20260506005751 55 338 5.0 14.0 0.00 0.00 0.21 86 1007.8
20260506005251 56 49 3.0 10.0 0.00 0.00 0.21 87 1008.1
20260506004752 57 27 5.0 11.0 0.00 0.00 0.21 87 1008.1
20260506004251 58 356 6.0 15.0 0.00 0.00 0.21 88 1008.1
20260506003752 59 300 4.0 11.0 0.00 0.00 0.21 93 1008.1
20260506003251 59 65 1.0 3.0 0.00 0.00 0.21 94 1007.8
20260506002751 59 273 1.0 4.0 0.00 0.00 0.21 93 1007.8
20260506002251 60 330 1.0 3.0 0.00 0.00 0.21 93 1007.5
20260506001751 60 35 2.0 8.0 0.00 0.00 0.21 93 1007.5
20260506001251 60 331 2.0 6.0 0.00 0.00 0.21 92 1007.5
20260506000752 61 41 3.0 5.0 0.00 0.00 0.21 90 1007.5
20260506000254 61 246 1.0 3.0 0.00 0.00 0.21 90 1007.5
20260505235751 61 141 2.0 4.0 0.00 0.00 0.21 90 1007.5
20260505235251 61 192 1.0 6.0 0.00 0.00 0.21 89 1007.1
20260505234751 61 169 2.0 6.0 0.00 0.00 0.21 89 1007.1
20260505234252 60 253 2.0 6.0 0.00 0.00 0.21 89 1007.1
20260505233751 61 233 2.0 8.0 0.00 0.00 0.21 90 1007.1
20260505233252 61 221 1.0 3.0 0.00 0.00 0.21 90 1006.8
20260505232753 60 185 0.0 2.0 0.00 0.00 0.21 90 1006.8
20260505232252 61 278 0.0 3.0 0.00 0.00 0.21 90 1006.8
20260505231751 60 0 2.0 7.0 0.00 0.00 0.21 89 1006.8
20260505231252 61 300 1.0 7.0 0.00 0.00 0.21 90 1006.4
20260505230752 61 330 1.0 4.0 0.00 0.00 0.21 89 1006.4
20260505230251 61 249 4.0 14.0 0.00 0.00 0.20 88 1006.4
20260505225751 62 91 3.0 10.0 0.00 0.00 0.20 87 1006.4
20260505225251 63 138 4.0 9.0 0.00 0.00 0.20 87 1006.8
20260505224751 63 232 7.0 14.0 0.00 0.00 0.20 85 1006.8
20260505224251 65 207 6.0 15.0 0.00 0.00 0.19 81 1006.8
20260505223751 66 169 1.0 4.0 0.00 0.00 0.19 81 1006.4
20260505223251 66 170 1.0 2.0 0.00 0.00 0.19 80 1006.1
20260505222751 67 160 1.0 4.0 0.00 0.00 0.19 77 1006.1
20260505222251 67 204 1.0 4.0 0.00 0.00 0.19 76 1006.1
20260505221751 67 235 2.0 6.0 0.00 0.00 0.19 76 1006.1
20260505221252 67 299 1.0 4.0 0.00 0.00 0.19 76 1006.1
20260505220751 67 308 2.0 6.0 0.00 0.00 0.19 76 1006.1
20260505220251 67 15 2.0 6.0 0.00 0.00 0.19 77 1006.1
20260505215752 67 325 2.0 10.0 0.00 0.00 0.19 77 1006.1
20260505215251 66 61 2.0 7.0 0.00 0.00 0.19 79 1006.1
20260505214751 66 269 1.0 4.0 0.00 0.00 0.19 78 1006.1
20260505214252 66 232 2.0 7.0 0.00 0.00 0.19 79 1006.1
20260505213751 66 69 1.0 3.0 0.00 0.00 0.19 81 1005.8
20260505213251 66 170 3.0 7.0 0.00 0.00 0.19 82 1005.8
20260505212751 66 212 2.0 6.0 0.00 0.00 0.19 82 1005.8
20260505212251 66 227 2.0 5.0 0.00 0.00 0.19 80 1005.4
20260505211752 66 188 1.0 4.0 0.00 0.00 0.19 81 1005.8
20260505211251 66 241 2.0 5.0 0.00 0.00 0.19 82 1005.8
20260505210751 66 44 2.0 7.0 0.00 0.00 0.19 86 1005.8
20260505210253 65 300 1.0 3.0 0.00 0.00 0.19 87 1005.8
20260505205752 65 233 1.0 3.0 0.00 0.00 0.19 87 1005.8
20260505205251 65 258 1.0 4.0 0.00 0.00 0.19 87 1005.8
20260505204751 64 318 0.0 2.0 0.00 0.00 0.19 89 1005.8
20260505204252 64 215 0.0 2.0 0.00 0.00 0.19 91 1006.1
20260505203751 63 342 0.0 0.0 0.00 0.00 0.19 94 1006.1
20260505203253 62 302 0.0 1.0 0.00 0.00 0.19 94 1006.1
20260505202752 61 302 0.0 1.0 0.00 0.00 0.19 94 1006.4
20260505202251 61 191 0.0 2.0 0.00 0.00 0.19 94 1006.4
20260505201751 60 190 0.0 2.0 0.00 0.00 0.19 95 1006.8
20260505201251 60 214 2.0 5.0 0.00 0.00 0.19 95 1007.1
20260505200752 60 236 2.0 5.0 0.00 0.00 0.18 95 1007.1
20260505200253 60 144 2.0 5.0 0.00 0.00 0.18 95 1007.1
20260505195751 60 235 3.0 9.0 0.00 0.00 0.18 95 1007.1
20260505195252 60 196 4.0 10.0 0.00 0.00 0.16 94 1007.5
20260505194751 60 264 4.0 11.0 0.00 0.00 0.13 94 1007.1
20260505194252 60 284 5.0 12.0 0.00 0.00 0.12 94 1007.1
20260505193752 61 234 3.0 7.0 0.00 0.00 0.10 93 1006.8
20260505193252 61 225 1.0 3.0 0.00 0.00 0.09 91 1006.8
20260505192751 62 189 1.0 3.0 0.00 0.00 0.09 90 1006.4
20260505192252 62 225 1.0 4.0 0.00 0.00 0.09 89 1006.4
20260505191752 62 291 3.0 9.0 0.00 0.00 0.08 87 1006.4
20260505191251 64 302 3.0 7.0 0.00 0.00 0.06 83 1006.4
20260505190751 66 335 4.0 9.0 0.00 0.00 0.03 75 1005.4
20260505190251 69 334 3.0 5.0 0.00 0.00 0.02 66 1005.8
20260505185751 72 257 6.0 16.0 0.00 0.00 0.02 56 1005.1
20260505185251 73 264 4.0 10.0 0.00 0.00 0.02 48 1005.1
20260505184752 73 188 6.0 10.0 0.00 0.00 0.02 48 1005.1
20260505184251 74 283 7.0 14.0 0.00 0.00 0.02 47 1004.7
20260505183751 74 266 6.0 12.0 0.00 0.00 0.02 48 1004.7
20260505183251 74 199 7.0 14.0 0.00 0.00 0.02 48 1004.7
20260505182752 74 228 6.0 13.0 0.00 0.00 0.02 48 1004.7
20260505182252 75 254 4.0 8.0 0.00 0.00 0.02 49 1004.7
20260505181754 75 310 6.0 13.0 0.00 0.00 0.02 49 1005.1
20260505181251 75 302 6.0 10.0 0.00 0.00 0.02 49 1005.1
20260505180752 75 201 9.0 19.0 0.00 0.00 0.02 47 1005.1
20260505180252 75 270 7.0 14.0 0.00 0.00 0.02 51 1005.1
20260505175752 75 266 3.0 15.0 0.00 0.00 0.02 50 1005.4
20260505175253 74 326 4.0 11.0 0.00 0.00 0.02 53 1005.4
20260505174752 73 48 3.0 7.0 0.00 0.00 0.02 54 1005.4
20260505174252 72 217 2.0 7.0 0.00 0.00 0.02 55 1005.8
20260505173752 71 206 3.0 9.0 0.00 0.00 0.02 57 1005.8
20260505173253 71 25 3.0 9.0 0.00 0.00 0.02 59 1005.8
20260505172751 71 291 4.0 14.0 0.00 0.00 0.02 59 1005.8
20260505172252 71 281 4.0 9.0 0.00 0.00 0.02 58 1005.8
20260505171751 72 289 5.0 11.0 0.00 0.00 0.02 56 1005.8
20260505171251 72 244 7.0 12.0 0.00 0.00 0.02 53 1005.8
20260505170752 73 222 5.0 16.0 0.00 0.00 0.02 53 1005.4
20260505170251 74 246 3.0 9.0 0.00 0.00 0.02 52 1005.8
20260505165751 74 144 4.0 9.0 0.00 0.00 0.02 52 1005.4
20260505165251 74 174 5.0 11.0 0.00 0.00 0.02 51 1005.1
20260505164752 74 243 7.0 16.0 0.00 0.00 0.02 50 1005.4
20260505164251 75 231 5.0 11.0 0.00 0.00 0.02 50 1005.1
20260505163751 75 310 7.0 15.0 0.00 0.00 0.02 51 1005.1
20260505163251 75 345 3.0 10.0 0.00 0.00 0.02 50 1005.4
20260505162752 76 155 5.0 13.0 0.00 0.00 0.02 50 1005.4
20260505162252 75 238 6.0 15.0 0.00 0.00 0.02 51 1005.4
20260505161752 74 98 4.0 9.0 0.00 0.00 0.02 52 1005.8
20260505161252 74 269 5.0 9.0 0.00 0.00 0.02 51 1005.8
20260505160751 74 356 10.0 18.0 0.00 0.00 0.02 51 1005.8
20260505160252 74 297 7.0 14.0 0.00 0.00 0.02 50 1005.8
20260505153252 75 238 9.0 16.0 0.00 0.00 0.02 53 1005.8
20260505152752 75 255 7.0 14.0 0.00 0.00 0.02 52 1005.8
20260505152253 75 257 7.0 12.0 0.00 0.00 0.02 52 1005.4
20260505151751 74 178 5.0 10.0 0.00 0.00 0.02 53 1005.4
20260505151251 74 248 4.0 9.0 0.00 0.00 0.02 53 1005.4
20260505150752 74 220 5.0 13.0 0.00 0.00 0.02 52 1005.4
20260505150251 73 313 7.0 17.0 0.00 0.00 0.02 58 1005.4
20260505140251 69 232 5.0 12.0 0.00 0.00 0.02 60 1005.8
20260505130252 65 205 3.0 9.0 0.00 0.00 0.02 67 1006.4
20260505124752 64 168 5.0 16.0 0.00 0.00 0.02 70 1006.4
20260505124251 62 175 4.0 9.0 0.00 0.00 0.02 71 1006.4
20260505123751 63 292 3.0 8.0 0.00 0.00 0.02 75 1006.4
20260505123251 62 159 4.0 13.0 0.00 0.00 0.02 73 1006.4
20260505122751 60 245 3.0 8.0 0.00 0.00 0.02 78 1006.4
20260505122252 60 245 2.0 5.0 0.00 0.00 0.02 80 1006.4
20260505121752 59 237 1.0 3.0 0.00 0.00 0.02 80 1006.4
20260505121252 59 240 1.0 4.0 0.00 0.00 0.02 81 1006.4
20260505120752 59 235 1.0 3.0 0.00 0.00 0.02 85 1006.4
20260505120252 58 259 1.0 5.0 0.00 0.00 0.02 80 1006.4
20260505115751 58 246 2.0 6.0 0.00 0.00 0.02 82 1006.4
20260505115251 58 178 1.0 3.0 0.00 0.00 0.02 85 1006.8
20260505114752 58 313 1.0 4.0 0.00 0.00 0.02 87 1006.4
20260505114252 57 120 0.0 2.0 0.00 0.00 0.02 90 1006.8
20260505113751 57 354 0.0 2.0 0.00 0.00 0.02 91 1006.8
20260505113251 56 258 2.0 6.0 0.00 0.00 0.02 91 1006.8
20260505112752 56 184 0.0 3.0 0.00 0.00 0.02 91 1006.4
20260505112251 56 193 0.0 2.0 0.00 0.00 0.02 92 1006.4
20260505111751 56 244 1.0 3.0 0.00 0.00 0.02 91 1006.4
20260505111251 55 265 1.0 6.0 0.00 0.00 0.02 93 1006.4
20260505110751 55 306 1.0 6.0 0.00 0.00 0.02 93 1006.4
20260505110252 55 286 0.0 3.0 0.00 0.00 0.02 93 1006.4
20260505101751 59 320 4.0 9.0 0.00 0.00 0.00 72 1006.4
20260505101252 58 248 2.0 5.0 0.00 0.00 0.00 73 1006.1
20260505100751 58 292 2.0 6.0 0.00 0.00 0.00 73 1006.1
20260505100300 57 177 1.0 4.0 0.00 0.00 0.00 73 1006.1
20260505095751 57 64 1.0 6.0 0.00 0.00 0.00 73 1006.1
20260505095251 57 312 1.0 3.0 0.00 0.00 0.00 73 1005.8
20260505094751 57 182 2.0 9.0 0.00 0.00 0.00 72 1005.8
20260505094251 58 57 1.0 4.0 0.00 0.00 0.00 72 1005.8
20260505093752 58 156 1.0 4.0 0.00 0.00 0.00 72 1005.8
20260505093251 58 305 2.0 6.0 0.00 0.00 0.00 71 1005.8
20260505092755 58 332 1.0 3.0 0.00 0.00 0.00 71 1005.8
20260505092251 58 81 1.0 6.0 0.00 0.00 0.00 71 1005.8
20260505091751 58 190 2.0 7.0 0.00 0.00 0.00 71 1005.8
20260505091253 58 259 2.0 7.0 0.00 0.00 0.00 71 1005.4
20260505090752 58 243 3.0 9.0 0.00 0.00 0.00 71 1005.4
20260505090251 57 125 1.0 5.0 0.00 0.00 0.00 72 1005.4
20260505085752 58 179 2.0 7.0 0.00 0.00 0.00 71 1005.4
20260505085252 57 328 1.0 4.0 0.00 0.00 0.00 72 1005.4
20260505084751 57 217 2.0 6.0 0.00 0.00 0.00 71 1005.4
20260505084253 58 357 0.0 4.0 0.00 0.00 0.00 70 1005.4
20260505083751 58 313 1.0 6.0 0.00 0.00 0.00 70 1005.4
20260505083251 58 140 2.0 6.0 0.00 0.00 0.00 69 1005.4
20260505082751 58 250 1.0 2.0 0.00 0.00 0.00 69 1005.4
20260505082252 59 244 0.0 3.0 0.00 0.00 0.00 69 1005.4
20260505081751 59 199 2.0 5.0 0.00 0.00 0.00 68 1005.4
20260505081252 59 312 1.0 5.0 0.00 0.00 0.00 68 1005.4
20260505080752 59 230 2.0 6.0 0.00 0.00 0.00 67 1005.4
20260505080251 59 161 2.0 5.0 0.00 0.00 0.00 68 1005.4
20260505075751 59 141 2.0 4.0 0.00 0.00 0.00 68 1005.4
20260505075252 59 230 1.0 5.0 0.00 0.00 0.00 67 1005.4
20260505074751 59 146 2.0 5.0 0.00 0.00 0.00 68 1005.8
20260505074251 59 248 1.0 5.0 0.00 0.00 0.00 67 1005.4
20260505073751 59 253 1.0 3.0 0.00 0.00 0.00 67 1005.4
20260505073251 59 240 2.0 6.0 0.00 0.00 0.00 67 1005.8
20260505072751 59 224 2.0 7.0 0.00 0.00 0.00 67 1005.8
20260505072252 59 126 3.0 8.0 0.00 0.00 0.00 67 1005.8
20260505071751 59 147 1.0 5.0 0.00 0.00 0.00 68 1005.8
20260505071252 59 194 2.0 6.0 0.00 0.00 0.00 68 1005.8
20260505070751 59 172 2.0 6.0 0.00 0.00 0.00 68 1005.8
20260505070252 58 245 2.0 7.0 0.00 0.00 0.00 69 1005.8